• en France
  • Liste des pays
  • À 7 jours
  • Température de l'eau
  • Carte satellitaire
  • Carte météo
  • Widgets météo
  • user-avatar
    Se connecter

    Météo par heure à Győr

    Ce jour, 20 Novembre, Lundi

    Heure Température Précipitation Vent Pression Humidité
    00:00 +1°C° 0 mm 4 m/s 751 mmHg 77%
    01:00 0°C° 0 mm 4 m/s 750 mmHg 80%
    02:00 0°C° 0 mm 4 m/s 750 mmHg 78%
    03:00 +1°C° 0 mm 4 m/s 751 mmHg 76%
    04:00 +1°C° 0 mm 5 m/s 751 mmHg 75%
    05:00 +1°C° 0 mm 5 m/s 751 mmHg 74%
    06:00 +1°C° 0 mm 5 m/s 751 mmHg 74%
    07:00 +1°C° 0 mm 5 m/s 752 mmHg 75%
    08:00 +2°C° 0 mm 6 m/s 752 mmHg 70%
    09:00 +3°C° 0 mm 7 m/s 752 mmHg 65%
    10:00 +5°C° 0 mm 8 m/s 753 mmHg 60%
    11:00 +5°C° 0 mm 8 m/s 753 mmHg 58%
    12:00 +6°C° 0 mm 8 m/s 753 mmHg 56%
    13:00 +6°C° 0 mm 7 m/s 753 mmHg 54%
    14:00 +5°C° 0 mm 6 m/s 753 mmHg 57%
    15:00 +6°C° 0 mm 5 m/s 753 mmHg 60%
    16:00 +5°C° 0 mm 4 m/s 753 mmHg 63%
    17:00 +4°C° 0 mm 4 m/s 753 mmHg 65%
    18:00 +4°C° 0 mm 4 m/s 753 mmHg 67%
    19:00 +4°C° 0 mm 4 m/s 753 mmHg 69%
    20:00 +3°C° 0,1 mm 4 m/s 753 mmHg 70%
    21:00 +3°C° 0,1 mm 4 m/s 753 mmHg 70%
    22:00 +3°C° 0,1 mm 3 m/s 753 mmHg 71%
    23:00 +3°C° 0,2 mm 3 m/s 753 mmHg 73%

    Demain, 21 Novembre, Mardi

    Heure Température Précipitation Vent Pression Humidité
    00:00 +3°C° 0,2 mm 3 m/s 753 mmHg 75%
    01:00 +4°C° 0,2 mm 2 m/s 753 mmHg 77%
    02:00 +4°C° 0,3 mm 2 m/s 752 mmHg 77%
    03:00 +4°C° 0,3 mm 2 m/s 752 mmHg 78%
    04:00 +4°C° 0,3 mm 2 m/s 751 mmHg 78%
    05:00 +4°C° 0,4 mm 2 m/s 751 mmHg 78%
    06:00 +4°C° 0,4 mm 2 m/s 751 mmHg 79%
    07:00 +4°C° 0,4 mm 2 m/s 750 mmHg 80%
    08:00 +3°C° 0,2 mm 3 m/s 750 mmHg 78%
    09:00 +3°C° 0,2 mm 3 m/s 750 mmHg 77%
    10:00 +4°C° 0,2 mm 3 m/s 751 mmHg 76%
    11:00 +4°C° 0,6 mm 3 m/s 750 mmHg 76%
    12:00 +5°C° 0,6 mm 3 m/s 750 mmHg 77%
    13:00 +5°C° 0,6 mm 3 m/s 750 mmHg 77%
    14:00 +7°C° 0,2 mm 3 m/s 750 mmHg 78%
    15:00 +7°C° 0,2 mm 3 m/s 750 mmHg 78%
    16:00 +8°C° 0,2 mm 3 m/s 750 mmHg 79%
    17:00 +8°C° 0,1 mm 3 m/s 750 mmHg 80%
    18:00 +7°C° 0,1 mm 3 m/s 750 mmHg 81%
    19:00 +7°C° 0,1 mm 3 m/s 751 mmHg 82%
    20:00 +7°C° 0 mm 3 m/s 751 mmHg 82%
    21:00 +8°C° 0 mm 3 m/s 751 mmHg 82%
    22:00 +8°C° 0 mm 3 m/s 751 mmHg 82%
    23:00 +8°C° 0,2 mm 3 m/s 751 mmHg 83%

    Après-demain, 22 Novembre, Mercredi

    Heure Température Précipitation Vent Pression Humidité
    00:00 +8°C° 0,2 mm 3 m/s 751 mmHg 84%
    01:00 +8°C° 0,2 mm 3 m/s 751 mmHg 85%
    02:00 +7°C° 0,1 mm 3 m/s 751 mmHg 85%
    03:00 +7°C° 0,1 mm 3 m/s 751 mmHg 85%
    04:00 +7°C° 0,1 mm 2 m/s 751 mmHg 85%
    05:00 +6°C° 0 mm 2 m/s 751 mmHg 85%
    06:00 +6°C° 0 mm 2 m/s 751 mmHg 85%
    07:00 +5°C° 0 mm 3 m/s 751 mmHg 85%
    08:00 +7°C° 0 mm 3 m/s 752 mmHg 81%
    09:00 +8°C° 0 mm 2 m/s 752 mmHg 76%
    10:00 +9°C° 0 mm 2 m/s 752 mmHg 71%
    11:00 +10°C° 0 mm 2 m/s 752 mmHg 68%
    12:00 +12°C° 0 mm 2 m/s 751 mmHg 65%
    13:00 +13°C° 0 mm 2 m/s 751 mmHg 62%
    14:00 +12°C° 0 mm 2 m/s 751 mmHg 67%
    15:00 +10°C° 0 mm 2 m/s 751 mmHg 72%
    16:00 +9°C° 0 mm 2 m/s 751 mmHg 77%
    17:00 +9°C° 0 mm 2 m/s 751 mmHg 80%
    18:00 +8°C° 0 mm 2 m/s 751 mmHg 83%
    19:00 +8°C° 0 mm 2 m/s 752 mmHg 86%
    20:00 +7°C° 0 mm 2 m/s 752 mmHg 86%
    21:00 +7°C° 0 mm 2 m/s 752 mmHg 87%
    22:00 +7°C° 0 mm 2 m/s 752 mmHg 88%
    23:00 +7°C° 0 mm 2 m/s 752 mmHg 89%

    23 Novembre, Jeudi

    Heure Température Précipitation Vent Pression Humidité
    00:00 +6°C° 0 mm 2 m/s 752 mmHg 89%
    01:00 +6°C° 0 mm 2 m/s 752 mmHg 90%
    02:00 +6°C° 0 mm 2 m/s 752 mmHg 90%
    03:00 +6°C° 0 mm 2 m/s 751 mmHg 91%
    04:00 +5°C° 0 mm 2 m/s 751 mmHg 92%
    05:00 +5°C° 0 mm 2 m/s 752 mmHg 92%
    06:00 +5°C° 0 mm 2 m/s 752 mmHg 92%
    07:00 +5°C° 0 mm 2 m/s 752 mmHg 93%
    08:00 +6°C° 0 mm 2 m/s 753 mmHg 89%
    09:00 +7°C° 0 mm 2 m/s 753 mmHg 85%
    10:00 +8°C° 0 mm 2 m/s 753 mmHg 82%
    11:00 +9°C° 0 mm 2 m/s 754 mmHg 79%
    12:00 +11°C° 0 mm 1 m/s 754 mmHg 75%
    13:00 +12°C° 0 mm 1 m/s 754 mmHg 72%
    14:00 +11°C° 0 mm 1 m/s 754 mmHg 77%
    15:00 +10°C° 0 mm 1 m/s 754 mmHg 81%
    16:00 +9°C° 0 mm 1 m/s 754 mmHg 86%
    17:00 +9°C° 0 mm 1 m/s 755 mmHg 87%
    18:00 +8°C° 0 mm 1 m/s 755 mmHg 89%
    19:00 +8°C° 0 mm 1 m/s 756 mmHg 91%
    20:00 +7°C° 0 mm 1 m/s 756 mmHg 91%
    21:00 +7°C° 0 mm 1 m/s 756 mmHg 91%
    22:00 +7°C° 0 mm 1 m/s 757 mmHg 92%
    23:00 +7°C° 0 mm 1 m/s 757 mmHg 92%

    24 Novembre, Vendredi

    Heure Température Précipitation Vent Pression Humidité
    00:00 +7°C° 0 mm 1 m/s 757 mmHg 92%
    01:00 +6°C° 0 mm 1 m/s 757 mmHg 92%
    02:00 +6°C° 0 mm 1 m/s 757 mmHg 92%
    03:00 +6°C° 0 mm 1 m/s 757 mmHg 92%
    04:00 +6°C° 0 mm 1 m/s 757 mmHg 92%
    05:00 +6°C° 0 mm 1 m/s 757 mmHg 92%
    06:00 +6°C° 0 mm 1 m/s 757 mmHg 92%
    07:00 +6°C° 0 mm 1 m/s 757 mmHg 92%
    08:00 +7°C° 0 mm 1 m/s 758 mmHg 88%
    09:00 +8°C° 0 mm 1 m/s 758 mmHg 84%
    10:00 +9°C° 0 mm 1 m/s 758 mmHg 80%
    11:00 +9°C° 0 mm 2 m/s 758 mmHg 76%
    12:00 +10°C° 0 mm 2 m/s 757 mmHg 71%
    13:00 +12°C° 0 mm 2 m/s 757 mmHg 67%
    14:00 +10°C° 0 mm 2 m/s 757 mmHg 72%
    15:00 +10°C° 0 mm 2 m/s 757 mmHg 77%
    16:00 +9°C° 0 mm 2 m/s 757 mmHg 82%
    17:00 +8°C° 0 mm 3 m/s 757 mmHg 84%
    18:00 +8°C° 0 mm 3 m/s 757 mmHg 87%
    19:00 +7°C° 0 mm 3 m/s 757 mmHg 89%
    20:00 +7°C° 0 mm 3 m/s 757 mmHg 90%
    21:00 +7°C° 0 mm 3 m/s 758 mmHg 90%
    22:00 +5°C° 0 mm 3 m/s 758 mmHg 91%
    23:00 +5°C° 0 mm 3 m/s 758 mmHg 91%

    25 Novembre, Samedi

    Heure Température Précipitation Vent Pression Humidité
    00:00 +5°C° 0 mm 3 m/s 758 mmHg 92%
    01:00 +5°C° 0 mm 3 m/s 757 mmHg 92%
    02:00 +5°C° 0 mm 3 m/s 757 mmHg 92%
    03:00 +4°C° 0 mm 3 m/s 757 mmHg 92%
    04:00 +4°C° 0 mm 3 m/s 757 mmHg 93%
    05:00 +4°C° 0 mm 3 m/s 757 mmHg 93%
    06:00 +4°C° 0 mm 4 m/s 757 mmHg 93%
    07:00 +4°C° 0 mm 4 m/s 757 mmHg 93%
    08:00 +5°C° 0 mm 4 m/s 756 mmHg 88%
    09:00 +6°C° 0 mm 4 m/s 756 mmHg 82%
    10:00 +7°C° 0 mm 5 m/s 756 mmHg 77%
    11:00 +8°C° 0 mm 5 m/s 756 mmHg 74%
    12:00 +9°C° 0 mm 5 m/s 755 mmHg 70%
    13:00 +10°C° 0 mm 6 m/s 755 mmHg 66%
    14:00 +9°C° 0 mm 5 m/s 755 mmHg 71%
    15:00 +8°C° 0 mm 4 m/s 755 mmHg 75%
    16:00 +9°C° 0 mm 3 m/s 755 mmHg 80%
    17:00 +8°C° 0 mm 3 m/s 755 mmHg 83%
    18:00 +8°C° 0 mm 3 m/s 755 mmHg 86%
    19:00 +7°C° 0 mm 3 m/s 755 mmHg 89%
    20:00 +7°C° 0 mm 2 m/s 755 mmHg 89%
    21:00 +7°C° 0 mm 2 m/s 755 mmHg 90%
    22:00 +7°C° 0 mm 2 m/s 755 mmHg 91%
    23:00 +7°C° 0 mm 2 m/s 755 mmHg 91%
    Voir plus